OBJECT Z, 67386

Orbit data source: Space-Track

You're viewing an Uncataloged Satellite

Recently launched and/or uncataloged satellites may have evolving metadata. Metadata may include but not limited to: Owner, Maufacturer, Bus, Motor, and Mission.

OBJECT Z, 67386 is a satellite in SSO that was launched on Sun, 11 Jan 2026 UTC via an FALCON 9 launch vehicle from the Air Force Western Test Range (AFWTR). Unknown objects in Earth's orbit typically refer to objects detected orbiting the Earth but have not yet been identified or cataloged. These objects could be anything from previously untracked satellites, spent rocket stages, debris from satellite collisions, or even natural meteoroids temporarily captured by Earth's gravity.

Loading next visibility...
Identifier
67386, 2026-004Z
Orbit
SSO
Country
Flag of TBDTBD
Related business
Manufacturer
Blue Canyon
Mission
Operational spacecraft
Bus & Motor
CUBESAT 6U, Unknown motor
Mass
~12 kg wet, ~12 kg dry
Launch date (UTC)
2026-01-11 (3 months ago)
Launch vehicle
FALCON 9
Launch site
Air Force Western Test Range (AFWTR)
Object type
Unknown
Shape & HBR
Unknown shape, 0.2 m
Radar Cross Section
RCS unknown

Expand to show TLE details & history
Last TLE update: 5 hours ago

TLE from 5 hours ago
0 OBJECT Z
1 67386U 26004Z   26095.58001914  .00001918  00000-0  21173-3 0  9998
2 67386  97.8005  95.4152 0003335  35.5663 324.5775 14.88598660 12493
Epoch: 2026-04-05T13:55Z
TLE epoch observation values (Epoch: 2026-04-05T13:55:13.653Z)
Latitude
-0.00011°
Longitude
52.72492°
Altitude
603.452 km
Speed
7.559 km/s
True Right ascension
06h 21m 39s
True Declination
0° 00' 00"
Sunlit
Object was in daylight at epoch
Visualization orbit readout
Latitude
Unknown
Longitude
Unknown
Altitude
Unknown
Speed
Unknown
Apparent Right ascension
Unknown
Apparent Declination
Unknown
Sunlit
N/A
Visualization observer readout
Local Sidereal Time
00:59:54
Azimuth
Unknown
Elevation
Unknown
Doppler factor
Unknown
Orbital elements
Apogee altitude
601.665 km
Perigee altitude
597.011 km
Semi-major axis
6,977.475 km
Eccentricity
0.00033
Inclination
97.8005°
RAAN
95.4152°
Arg. of periapsis
35.5663°
True anomaly
324.55534°
Mean anomaly
324.5775°
Eccentric anomaly
324.56642°
Mean motion
3.72388 °/min
Orbital period
96.67 mins
BSTAR
0.00021173
Loading maneuver chart data...
Computing Atmospheric mass density...
Loading historical data...
Loading historical data...
Loading historical data...
Loading historical data...
Loading historical data...
Loading historical data...
Loading historical data...

Documentation

Showing up to 5 results
|